GEFSSE_con_cape1000_186.txt.gz
Probability
10 68 97 94 90 87 90 90 94 97 94 90 90 97 97 94 94 94 90 90 90 90 90 87 84 87 84 81 74 77 81 77 84 77 74 74 84 87 90 84 87 81 94
19 77 100 100 94 90 87 87 87 94 94 94 94 90 90 90 87 90 90 90 90 90 81 84 81 77 74 74 77 77 77 81 81 84 74 77 74 81 87 90 84 84 94
52 87 100 100 100 90 90 87 90 94 94 94 90 87 94 90 90 90 90 90 90 90 81 84 77 71 71 71 74 71 68 84 77 77 77 74 77 77 87 87 87 81 90
58 81 90 100 100 94 94 94 90 94 97 97 90 87 84 87 84 84 84 84 84 77 77 81 74 71 68 71 68 71 71 71 84 84 68 71 68 74 84 84 87 84 87
58 65 90 100 97 97 90 90 90 94 94 94 87 84 84 84 84 81 77 71 71 77 71 74 61 68 61 65 68 65 68 61 68 65 48 52 48 81 90 87 84 90 94
61 61 87 94 94 94 90 90 94 94 90 90 90 87 84 84 84 84 84 81 77 74 74 74 68 68 61 55 55 52 55 65 52 48 42 35 26 58 84 90 87 97 97
58 65 84 90 94 94 94 94 90 90 90 90 90 84 84 87 90 84 84 77 71 71 77 74 68 61 61 58 55 55 55 45 35 35 29 29 26 58 90 87 90 94 94
48 68 81 87 90 90 90 87 90 90 90 90 90 94 90 87 87 84 84 74 77 74 71 71 68 65 65 61 65 65 61 52 42 29 29 19 29 65 84 94 90 87 90
45 65 74 81 87 87 90 87 87 90 87 84 81 84 87 84 81 74 77 77 77 77 68 61 61 61 68 68 74 68 71 68 52 29 19 26 39 58 77 87 87 90 87
45 58 65 61 65 77 81 84 84 77 71 71 77 74 74 77 74 74 74 74 71 65 61 65 68 74 74 65 74 74 65 65 55 32 26 19 42 65 71 74 77 84 84
39 45 48 58 61 58 65 71 65 68 68 68 68 68 71 55 52 52 55 65 61 65 65 65 68 68 68 68 68 65 61 55 45 32 32 35 52 68 71 71 74 77 74
35 35 42 48 45 45 55 58 61 61 61 55 52 52 45 42 42 52 58 61 55 58 61 68 68 55 55 42 35 39 39 42 42 29 23 48 61 68 71 81 68 65 68
32 39 35 42 48 45 42 45 42 45 42 42 39 39 39 39 35 35 32 45 45 52 52 52 45 39 29 26 19 19 23 16 26 26 19 32 58 58 61 74 71 71 68
35 39 35 32 45 45 39 32 39 42 42 39 35 35 35 32 26 16 16 19 19 23 23 26 23 23 26 26 19 19 16 10 16 16 13 29 55 48 48 65 68 68 61
29 35 35 35 32 39 32 32 35 35 35 35 35 35 32 32 26 16 13 13 13 13 16 19 19 16 16 13 13 13 13 10 6 10 3 13 45 39 39 48 55 52 58
23 26 35 32 29 29 26 26 32 32 32 29 26 29 29 23 23 13 13 13 10 13 13 10 10 10 13 13 13 13 13 6 6 6 3 3 13 26 26 39 42 42 45
26 23 26 32 29 26 26 26 26 23 23 29 29 26 26 26 13 10 10 6 6 6 6 6 3 3 6 3 6 10 3 3 3 6 6 3 3 10 26 29 42 42 42
26 23 26 26 26 26 23 26 26 23 26 23 26 19 19 23 10 10 3 3 6 6 6 3 0 0 0 0 0 0 3 3 3 3 3 3 3 0 0 19 23 35 35
16 16 13 16 19 19 19 26 19 19 16 13 10 13 16 23 10 3 6 3 6 6 3 3 6 0 0 0 0 0 0 0 0 0 0 3 3 0 0 0 13 19 16
23 16 19 23 16 16 23 19 13 10 10 6 10 6 6 3 6 6 6 10 6 6 6 3 3 0 0 0 0 0 0 0 3 3 3 3 3 0 0 0 0 6 16
13 23 19 23 19 16 23 26 13 13 6 10 3 3 3 6 10 6 6 3 3 3 3 0 0 0 0 0 0 0 0 0 0 0 0 0 0 0 0 0 0 0 6
10 13 10 19 23 23 16 10 10 10 3 6 6 10 3 6 10 13 10 3 3 3 0 0 0 0 0 0 0 0 0 0 0 0 0 0 0 0 0 0 0 0 0
13 10 10 6 13 19 13 10 10 3 0 0 0 3 3 6 10 10 6 3 0 0 0 0 0 0 0 0 0 0 0 0 0 0 0 0 0 0 0 0 0 0 0
6 10 6 6 6 6 10 10 10 10 3 3 3 0 0 6 6 6 6 0 0 0 0 0 0 0 0 0 0 0 0 0 0 0 0 0 0 0 0 0 0 0 0
0 3 6 6 6 6 6 10 10 10 3 3 0 0 0 0 3 3 3 3 0 0 0 0 0 0 0 0 0 0 0 0 0 0 0 0 0 0 0 0 0 0 0
0 0 6 6 6 3 6 6 13 10 6 3 0 0 0 0 0 0 3 3 3 0 0 0 0 0 0 0 0 0 0 0 0 0 0 0 0 0 0 0 0 0 0

GEFSSE_con_cape1000_192.txt.gz
Probability
23 77 87 97 97 97 97 97 97 100 97 94 100 97 94 94 94 87 90 90 94 94 90 87 87 84 84 84 84 74 74 74 81 77 77 84 84 81 90 84 81 81 94
29 81 94 97 100 97 97 97 100 100 97 97 90 94 94 90 90 87 90 90 90 90 87 84 84 84 77 77 74 77 74 74 77 74 77 71 84 84 84 87 84 90 84
52 81 87 100 97 100 94 100 100 100 100 97 90 90 87 90 87 87 87 87 87 87 84 77 81 81 77 77 68 68 74 81 71 71 68 58 68 74 77 74 84 87 87
55 77 84 100 100 97 97 100 100 100 94 94 94 90 94 90 90 87 87 87 87 87 77 77 74 74 71 74 71 74 77 81 71 68 58 32 45 71 84 77 84 87 90
55 71 81 97 97 97 97 94 94 90 94 87 87 87 87 87 84 81 84 87 87 81 74 71 74 68 61 61 65 65 74 71 71 68 39 32 45 77 84 84 87 87 94
42 52 77 94 94 87 90 90 90 90 90 90 87 90 87 87 84 77 77 77 77 71 74 71 71 68 68 68 65 61 61 61 55 32 29 29 39 87 77 84 81 84 87
39 55 68 87 87 87 87 90 90 90 90 90 90 90 90 90 81 77 71 68 65 71 74 68 71 68 65 65 61 65 68 61 52 32 35 48 58 87 81 90 87 90 87
55 55 74 87 87 87 90 84 81 77 77 81 87 87 87 87 84 77 74 71 65 68 65 61 58 61 58 58 65 65 71 68 39 16 39 39 68 81 77 94 94 87 87
58 68 74 77 84 84 84 81 77 81 77 77 74 74 77 74 71 71 74 68 65 61 61 52 52 52 55 58 58 52 52 55 42 29 26 45 77 77 81 87 87 90 87
65 68 77 74 81 74 77 81 77 71 68 68 68 71 68 61 61 61 61 68 65 55 48 52 52 48 58 58 58 52 52 52 35 29 35 39 68 71 77 77 81 81 84
71 74 74 68 77 77 68 68 71 68 68 68 61 65 65 55 52 65 52 61 55 52 52 52 58 61 61 55 48 55 58 35 29 39 52 52 58 55 68 74 77 74 77
65 65 71 71 74 68 68 74 71 65 68 61 65 68 65 61 61 48 48 55 48 55 58 58 65 61 48 42 48 45 35 29 23 23 32 55 48 52 61 71 77 74 71
65 71 71 68 68 68 65 65 68 65 68 68 61 65 71 61 55 42 55 52 52 52 52 55 61 39 32 29 29 29 26 26 29 19 32 39 45 45 52 61 71 74 65
61 68 68 71 68 65 61 65 61 65 61 58 58 55 55 58 61 58 58 48 55 48 52 52 58 39 42 32 29 29 23 29 26 29 42 35 35 29 42 48 55 58 65
65 65 65 68 71 71 68 61 58 58 58 58 58 58 58 58 58 52 52 58 48 48 42 45 45 45 45 32 29 23 26 26 23 16 35 32 32 32 32 32 42 42 52
52 58 71 68 61 65 65 65 55 45 48 52 55 61 58 58 58 55 48 45 39 29 39 39 39 48 42 42 35 32 26 32 26 23 23 23 26 29 29 29 39 32 39
48 52 55 45 55 58 58 52 45 39 45 48 52 55 48 48 48 45 48 52 42 35 42 42 42 42 39 35 35 35 32 29 23 26 16 19 19 19 29 29 29 32 39
42 45 42 42 42 48 45 45 35 35 42 45 45 42 39 42 39 42 52 52 52 48 45 45 42 39 32 39 35 23 23 29 26 26 19 16 16 10 19 29 32 32 26
35 39 35 32 32 32 32 39 45 45 45 48 45 39 39 42 42 42 42 45 45 48 39 35 45 35 32 32 29 26 26 26 26 16 16 13 16 19 19 26 26 23 19
26 32 29 32 32 32 35 35 39 35 35 39 39 35 42 42 45 42 39 39 35 29 32 32 32 39 39 29 10 13 13 16 16 13 16 16 19 16 16 13 13 13 19
23 32 32 29 32 32 32 35 35 32 32 39 32 35 35 42 45 42 32 35 35 29 29 26 32 32 35 23 16 13 6 3 13 19 23 23 16 13 19 16 16 13 13
23 26 29 32 29 32 35 35 35 35 29 29 29 29 32 26 29 26 32 32 32 32 32 29 32 29 19 16 16 6 3 6 13 0 13 6 10 19 10 13 13 13 10
19 23 23 29 29 29 32 35 32 32 32 29 29 26 26 23 29 35 29 29 29 26 29 29 29 26 10 16 16 10 3 6 6 6 10 3 10 16 6 6 13 13 13
16 19 23 26 26 29 26 32 32 29 32 29 29 26 19 19 19 26 29 26 26 26 23 26 26 26 19 16 16 16 13 6 3 6 10 10 10 10 0 0 0 3 10
13 19 19 19 23 23 26 32 32 29 29 32 29 26 29 19 19 19 23 19 23 23 23 23 23 26 23 19 13 10 10 10 3 3 0 3 6 10 3 3 3 3 3
13 16 16 19 23 23 23 26 26 26 26 29 26 29 16 13 19 19 19 19 16 16 19 23 23 23 29 19 16 16 6 6 3 3 3 3 3 3 6 10 3 6 10

GEFSSE_con_cape1000_198.txt.gz
Probability
81 74 94 94 97 100 90 84 87 87 90 90 90 87 90 90 87 87 81 94 94 94 87 87 84 81 84 87 81 74 68 65 74 74 74 74 81 77 74 68 68 68 90
77 77 97 97 97 97 94 94 87 87 87 90 90 90 87 87 87 90 90 90 90 90 87 81 81 84 84 77 74 74 71 71 61 61 58 65 77 77 81 81 84 87 87
77 81 87 94 90 97 94 94 90 87 90 90 90 87 87 90 87 87 87 90 90 84 74 74 77 77 77 77 74 71 74 74 74 71 71 61 65 90 84 84 84 90 81
77 81 81 94 94 94 97 94 87 84 84 87 87 84 84 87 87 87 87 84 84 81 71 71 71 68 68 65 65 68 71 74 77 77 68 45 48 87 81 84 84 84 87
68 74 90 90 90 90 90 90 90 87 81 84 84 84 84 84 81 81 81 81 81 77 74 68 68 68 65 61 61 61 65 74 77 81 58 45 65 87 84 84 81 84 87
58 71 87 90 90 90 84 84 84 84 81 81 84 84 84 81 84 81 81 81 77 68 71 61 65 68 68 65 65 65 61 61 71 48 48 55 58 90 84 87 84 81 81
48 77 81 90 94 84 84 84 84 84 84 81 77 81 81 77 81 77 77 74 74 68 61 61 68 65 58 61 61 58 61 61 52 26 29 32 55 84 84 81 90 87 87
58 71 77 84 84 81 81 81 81 81 74 74 71 74 77 77 74 71 74 68 61 61 58 61 55 58 65 61 52 55 58 55 29 16 26 29 68 77 84 81 84 81 71
52 68 68 71 77 77 77 77 77 77 77 74 74 74 74 71 71 68 65 65 61 68 61 55 52 52 52 55 65 65 68 58 45 26 6 29 61 71 71 71 74 77 77
45 58 68 74 68 68 68 77 81 81 74 74 74 71 68 68 65 68 68 68 65 61 55 52 52 52 48 58 68 68 71 58 35 32 6 32 74 68 68 68 71 71 74
58 58 71 68 71 71 65 65 71 74 77 71 71 71 71 68 52 58 58 65 65 65 55 55 58 52 55 61 65 61 55 48 19 26 19 48 65 61 65 61 68 68 77
55 68 68 71 74 71 61 61 65 55 61 58 61 58 58 65 68 48 61 65 61 58 55 61 68 61 58 45 58 58 42 42 29 16 26 61 65 65 58 61 61 71 71
55 71 65 68 74 68 71 65 61 58 55 52 55 55 61 65 61 61 55 58 58 58 55 55 55 39 35 39 45 42 39 35 26 13 29 58 55 55 55 55 65 61 65
61 52 58 61 74 74 74 68 68 58 52 55 55 58 61 58 65 61 61 61 55 48 52 52 39 42 42 39 32 19 26 26 23 23 26 52 48 42 45 48 55 58 61
58 61 55 65 74 74 74 77 61 61 65 58 65 61 61 58 61 61 58 68 55 55 52 48 39 42 45 39 32 32 26 23 26 23 23 45 42 42 48 48 48 48 52
48 45 58 55 68 68 74 71 68 65 61 61 58 58 58 58 58 58 61 68 55 52 52 45 42 39 42 42 39 32 35 29 29 23 19 19 42 45 48 48 45 42 39
48 58 61 48 58 65 55 58 55 65 58 58 58 61 58 52 55 61 55 55 48 45 48 48 45 42 45 35 35 29 29 32 26 26 13 10 16 29 39 45 39 39 39
48 55 61 39 45 48 52 58 55 58 48 52 55 42 42 45 48 48 45 42 48 42 45 45 35 35 32 29 29 29 26 26 29 16 10 13 13 6 29 32 29 32 32
42 55 52 55 48 45 45 52 45 52 55 52 45 45 42 39 35 35 39 42 45 39 42 29 35 32 32 29 29 26 26 23 16 10 10 6 6 13 16 16 29 29 32
35 42 48 45 45 48 45 39 39 35 42 42 52 42 42 42 35 42 39 39 42 42 42 35 32 32 29 26 13 16 6 16 16 13 3 3 10 6 10 3 6 6 23
39 42 45 42 42 42 55 35 35 35 35 35 39 32 35 35 39 39 35 39 39 42 42 32 26 23 23 19 16 10 6 6 6 10 6 3 6 10 10 6 3 3 6
32 39 26 35 35 45 39 45 42 39 35 32 35 39 32 32 29 26 35 35 32 32 29 26 26 23 23 23 13 10 6 6 6 3 3 6 3 6 6 3 3 3 6
26 23 23 39 39 32 42 35 39 35 32 32 39 29 29 29 26 29 26 29 35 35 32 26 26 16 19 19 16 10 6 6 10 10 6 0 0 3 3 3 3 6 3
19 13 29 35 39 35 26 26 32 29 26 32 39 29 29 29 23 26 26 26 29 32 32 29 26 19 16 10 16 10 10 6 6 6 6 3 3 3 0 0 3 3 3
13 16 23 29 35 42 35 29 29 26 32 35 35 29 26 29 26 19 23 23 26 26 23 26 23 19 16 13 16 13 6 6 6 6 0 6 6 3 10 6 3 6 3
16 13 13 26 29 29 29 29 35 35 35 32 23 26 26 35 32 26 26 29 26 29 19 23 19 16 16 16 13 13 13 10 6 3 3 3 3 3 6 3 6 3 3

GEFSSE_con_cape1000_204.txt.gz
Probability
58 81 100 100 97 97 97 97 97 97 94 94 94 90 90 90 90 90 90 90 87 87 87 90 90 87 90 94 94 94 90 90 84 87 84 84 87 90 90 87 81 74 94
61 84 100 100 97 97 97 97 97 94 94 94 94 90 90 90 90 90 90 90 90 94 94 94 90 87 87 84 81 84 84 81 84 84 84 65 71 90 97 94 87 77 97
55 77 97 94 94 97 97 97 97 94 94 94 94 90 90 90 87 87 87 90 90 90 94 94 90 87 81 81 84 74 74 77 74 71 68 42 52 87 90 87 94 97 97
55 61 90 94 94 94 94 97 97 94 94 94 94 87 87 87 87 87 90 87 87 84 81 81 84 84 81 81 81 71 71 71 71 71 35 42 42 74 94 90 94 90 90
55 61 81 90 90 90 90 90 90 87 87 87 87 87 87 87 87 87 87 87 87 84 77 74 71 68 65 65 61 65 65 71 65 65 32 26 16 74 84 87 84 84 84
58 61 81 90 90 90 90 90 87 87 87 84 77 77 81 81 84 84 84 81 77 74 74 68 68 61 65 65 61 65 61 58 48 42 26 26 19 71 84 81 84 90 84
55 55 74 90 90 90 90 90 87 84 77 77 68 68 68 71 74 81 84 74 77 61 65 61 65 61 61 65 68 65 65 58 42 26 23 23 13 61 81 84 84 87 87
55 58 71 84 81 81 84 84 77 77 77 74 77 74 74 71 74 71 71 68 58 55 52 58 58 58 61 61 61 61 58 48 42 29 19 13 32 71 81 84 81 81 87
52 52 58 68 71 74 77 77 74 74 74 81 84 74 71 68 68 68 65 61 55 55 55 55 48 52 55 61 61 65 58 55 42 29 29 13 45 65 77 74 74 77 74
45 52 58 61 61 65 65 71 71 68 68 71 71 65 65 71 65 61 65 65 58 58 61 58 48 45 52 58 58 58 58 52 32 26 19 19 48 61 65 74 74 71 71
39 42 48 52 55 61 58 65 65 65 65 61 58 65 61 55 55 58 58 68 58 58 58 52 48 52 52 52 58 58 45 29 19 19 10 32 58 61 61 68 71 68 74
29 29 29 35 42 45 55 58 58 58 55 45 45 45 45 32 32 42 52 58 65 61 55 52 48 42 42 29 32 39 23 16 19 16 13 55 58 61 68 68 65 68 68
26 26 19 19 26 29 32 42 42 42 39 39 35 32 29 26 23 26 26 32 42 39 35 35 45 32 29 19 23 23 23 19 16 13 13 45 61 61 65 65 61 65 65
32 26 19 19 19 16 26 32 32 32 35 35 32 29 29 29 23 26 23 23 23 23 23 19 23 23 19 16 19 23 19 16 19 10 10 35 48 58 55 58 58 61 61
32 23 26 19 19 19 19 23 29 26 29 32 26 26 26 23 23 19 19 16 16 19 19 16 19 19 16 16 16 16 13 13 16 13 6 35 42 48 45 52 55 55 58
16 19 29 26 26 23 26 23 26 23 19 23 23 23 26 19 16 16 13 13 16 16 23 16 16 16 10 10 10 3 6 6 6 3 3 13 39 42 42 45 48 45 42
16 19 19 19 19 23 23 26 29 26 23 23 19 19 19 19 13 16 13 16 13 16 13 13 13 6 6 6 3 3 6 6 6 0 3 3 10 23 32 35 39 42 35
16 16 19 23 16 23 23 23 23 19 23 19 16 16 16 19 16 13 13 10 13 16 13 10 10 6 3 0 3 0 3 3 3 0 0 0 0 0 10 26 29 32 32
6 6 6 10 10 10 16 19 19 16 19 19 19 23 16 16 19 16 13 10 10 16 16 16 6 6 6 0 0 0 0 0 0 0 0 0 0 0 0 3 19 23 29
10 10 13 13 13 13 16 19 19 13 13 13 19 23 19 19 19 16 16 10 10 13 13 10 3 3 3 0 3 0 0 0 0 0 0 0 0 0 0 0 3 6 23
6 6 6 13 13 13 16 16 16 16 13 16 19 19 23 19 19 16 16 13 10 13 13 10 6 3 3 0 0 0 0 0 0 0 0 0 0 0 0 0 0 0 0
6 6 3 10 13 10 10 10 10 13 13 13 13 13 19 16 13 19 10 16 13 10 10 6 3 3 3 0 0 0 0 0 0 0 0 0 0 0 0 0 0 0 0
3 3 6 10 10 10 10 10 10 13 10 16 13 10 13 13 16 19 16 16 13 13 3 3 3 3 3 0 0 0 0 0 0 0 0 0 0 0 0 0 0 0 0
3 3 3 6 6 10 13 13 10 10 6 6 10 10 13 10 10 10 16 16 10 6 3 3 3 3 0 0 0 0 0 0 0 0 0 0 0 0 0 0 0 0 0
6 6 3 6 6 6 10 10 10 6 3 3 6 10 10 10 10 10 10 16 10 13 13 6 3 3 3 0 0 0 0 0 0 0 0 0 0 0 0 0 0 0 0
6 6 3 3 6 6 10 10 10 10 3 3 3 6 10 10 10 10 10 10 13 10 10 6 6 3 3 0 0 0 0 0 0 0 0 0 0 0 0 0 0 0 0

GEFSSE_con_cape1000_210.txt.gz
Probability
32 58 97 94 94 94 94 94 94 94 90 90 94 94 90 94 90 90 87 90 90 87 84 84 87 87 90 90 87 90 90 94 94 94 94 90 94 94 90 87 90 87 94
29 65 90 90 94 94 90 94 90 90 94 90 90 94 94 94 94 94 90 94 94 90 90 90 94 94 94 90 87 94 87 90 90 90 87 81 81 90 94 90 87 81 97
45 61 84 94 94 94 90 94 94 87 90 90 90 94 90 90 90 90 90 94 94 94 94 94 94 94 94 94 94 94 87 87 84 84 77 68 65 74 100 97 94 90 87
58 58 81 90 90 90 87 87 90 87 90 90 90 90 87 90 90 90 94 94 94 94 94 94 94 90 90 90 87 87 87 84 87 77 65 52 55 74 84 97 94 84 87
52 52 81 90 87 90 87 87 87 81 87 87 90 84 87 87 87 84 87 87 90 90 90 90 87 81 81 81 81 77 77 77 71 71 39 42 48 74 90 81 94 84 87
52 65 74 84 84 90 90 90 87 77 74 74 74 77 77 84 77 77 74 74 74 81 84 77 77 71 71 74 74 74 74 74 68 45 35 32 39 61 81 87 77 87 97
52 61 68 77 81 87 84 84 74 71 71 71 68 71 77 71 71 68 68 71 71 65 61 61 61 65 71 68 65 65 71 68 55 39 32 32 39 68 74 81 87 94 97
48 55 55 65 68 71 71 71 74 74 68 74 68 71 71 68 65 65 65 65 65 61 58 61 52 52 58 61 61 61 58 52 45 32 26 26 45 74 77 77 94 97 97
45 45 48 55 58 61 65 68 71 68 68 74 74 68 61 61 61 61 61 61 58 68 61 61 55 52 48 55 42 45 52 55 32 32 23 16 39 61 71 84 84 94 94
39 45 42 42 39 45 52 65 65 65 65 58 61 58 58 58 58 58 61 58 58 65 58 61 58 52 48 45 42 42 45 35 26 29 26 23 39 55 65 74 81 84 81
32 32 35 35 35 35 39 52 58 58 58 55 52 52 48 48 48 52 52 52 48 52 48 45 42 45 45 45 42 42 35 32 26 29 23 29 52 61 58 65 74 71 68
32 32 29 29 29 29 32 42 45 45 48 52 45 45 45 39 42 48 52 52 48 48 48 45 39 39 39 32 29 39 29 26 29 29 26 42 55 61 68 68 61 68 65
29 29 26 26 29 32 29 29 35 35 35 35 42 39 32 23 32 39 35 39 39 39 35 32 32 35 35 26 23 26 19 23 26 19 19 39 45 52 58 68 65 58 58
23 19 23 26 29 26 26 29 26 29 32 32 32 32 26 23 19 23 23 19 19 23 23 23 23 26 23 23 13 16 16 16 19 19 16 29 39 45 48 58 58 58 65
16 19 19 16 16 16 16 16 19 26 29 29 23 26 26 26 13 13 16 16 19 19 16 19 23 23 19 16 16 13 13 13 13 13 16 26 32 39 39 45 45 45 58
13 10 13 16 13 13 16 23 19 23 26 23 23 26 19 19 10 10 16 13 13 10 13 13 19 19 16 16 16 19 13 10 10 3 10 13 26 39 39 42 42 42 45
16 13 10 10 10 13 10 19 19 13 16 16 19 19 19 16 10 10 13 13 13 10 10 10 13 10 10 10 6 10 3 6 6 3 10 10 6 13 32 35 42 45 45
16 13 10 10 6 6 6 10 13 13 16 16 16 13 19 13 13 10 10 13 13 10 10 13 13 13 6 6 6 6 6 10 3 3 6 3 3 3 13 23 29 32 35
13 6 6 6 3 3 3 3 6 6 10 10 6 10 6 6 10 10 10 10 10 6 6 10 10 6 10 6 6 3 6 3 3 3 0 3 0 0 6 10 13 23 23
10 6 0 3 3 3 3 3 3 3 6 3 6 6 6 6 6 6 6 10 10 10 10 10 10 6 3 3 0 0 0 0 3 0 0 0 0 0 6 6 6 6 16
3 3 0 0 0 0 3 3 3 3 0 0 0 0 3 6 13 10 10 10 13 13 13 10 6 3 0 0 0 0 0 0 0 0 0 0 0 0 0 6 6 6 6
3 0 0 0 0 0 3 3 3 0 0 0 0 0 10 10 10 10 10 10 6 10 10 6 6 3 3 0 0 0 0 0 0 0 0 0 0 0 0 0 3 6 6
0 0 0 0 0 0 3 3 0 0 0 0 0 0 3 3 10 10 10 10 10 6 3 6 6 3 3 0 0 0 0 0 0 0 0 0 0 0 0 0 0 0 0
3 0 0 0 3 3 3 3 0 0 0 0 0 0 0 3 6 6 10 10 6 6 3 3 3 3 3 0 0 0 0 0 0 0 0 0 0 0 0 0 0 0 0
3 3 3 3 3 3 0 0 3 3 3 3 3 3 3 3 3 3 0 3 6 6 6 3 3 3 3 3 0 0 0 0 0 0 0 0 0 0 0 0 0 0 0
3 0 0 0 0 0 0 3 3 3 3 3 3 3 3 3 3 3 3 0 0 0 3 3 3 3 3 3 3 0 0 0 0 0 0 0 0 0 0 0 0 0 0

GEFSSE_con_cape1000_216.txt.gz
Probability
32 52 84 90 87 90 84 84 87 87 87 84 87 90 90 90 87 87 87 87 87 87 84 84 84 84 84 77 77 81 84 87 84 74 74 68 74 77 74 74 81 71 94
39 55 84 87 84 84 84 84 87 87 87 87 90 87 94 90 90 87 90 90 90 87 87 87 84 87 84 84 84 84 84 87 84 81 71 65 74 77 81 77 84 84 87
39 58 68 90 87 84 84 77 81 84 87 87 87 87 87 87 87 87 87 87 90 90 87 87 90 87 81 81 81 84 84 81 81 74 65 55 61 71 77 74 84 84 87
42 52 55 90 90 84 81 68 81 77 81 81 84 81 84 87 81 81 87 90 90 90 90 84 84 81 84 81 77 81 77 74 68 71 65 35 35 74 77 84 81 84 84
42 45 68 84 87 87 84 71 71 71 74 74 77 74 74 74 74 77 81 81 81 87 84 81 81 74 77 74 68 71 74 74 65 58 29 29 55 74 74 81 77 77 81
48 45 55 77 84 84 81 68 68 68 68 74 68 68 68 68 68 68 71 68 74 71 77 74 77 77 77 71 65 65 68 68 61 29 32 35 55 87 77 81 77 77 84
45 45 58 71 71 71 65 61 65 65 71 71 71 68 68 68 68 68 71 68 71 68 65 61 61 68 74 68 58 58 58 55 39 23 35 39 55 84 77 81 84 81 84
55 52 65 68 61 61 61 61 65 61 65 65 65 65 65 68 68 68 68 68 65 52 45 52 58 58 65 52 55 48 42 45 19 13 23 32 58 74 77 81 87 84 81
48 52 55 52 58 58 61 65 65 65 61 58 61 61 61 65 65 68 68 65 61 52 48 55 55 52 45 48 45 45 42 39 23 26 23 39 55 65 65 77 71 81 84
42 45 48 42 52 52 52 58 58 55 55 58 58 58 58 61 61 58 61 58 58 48 45 48 45 45 45 42 42 42 42 32 19 19 26 45 52 58 61 65 71 74 81
42 42 39 39 42 45 45 45 52 55 52 48 45 48 52 48 42 52 42 52 48 45 45 45 48 39 42 39 35 39 35 19 13 16 35 42 55 55 61 71 74 71 68
42 42 39 39 39 39 39 52 45 45 45 42 42 42 42 48 45 35 42 45 48 48 45 45 42 42 32 23 26 32 29 23 19 26 35 48 48 52 68 68 74 71 65
32 39 39 35 42 39 39 42 42 48 48 45 42 42 45 48 45 35 42 42 45 45 45 42 35 29 26 26 26 23 13 16 29 26 29 35 39 42 55 68 68 68 61
26 39 39 42 42 35 45 45 45 39 39 39 42 39 45 48 42 35 39 39 42 42 35 32 39 26 26 23 19 19 19 26 19 23 32 39 35 35 35 45 45 48 55
29 35 39 39 42 42 42 42 45 45 35 35 39 39 42 42 35 29 39 39 32 39 29 32 29 26 26 23 23 16 16 19 19 16 26 29 35 35 29 32 39 42 42
26 32 42 42 42 42 42 42 45 45 48 39 32 39 42 45 39 35 39 35 29 29 29 19 23 23 26 26 26 26 26 19 23 19 10 23 23 26 29 42 39 39 42
35 32 32 32 35 42 39 39 35 32 39 35 39 42 42 42 39 42 39 32 29 26 26 29 23 26 26 26 29 29 26 29 29 26 16 13 23 23 32 29 29 29 32
39 35 32 29 32 32 39 39 29 26 29 39 39 39 35 35 32 35 29 29 32 29 29 26 26 26 26 23 32 23 26 29 23 23 29 19 19 19 23 23 23 26 29
32 32 29 32 29 29 32 32 26 29 26 26 26 23 26 29 29 26 29 29 32 29 23 23 23 26 32 32 29 32 23 29 29 29 26 29 19 26 26 19 23 23 26
26 29 26 23 23 26 19 23 19 16 10 13 16 19 23 23 23 23 23 29 29 29 29 29 32 32 35 32 19 19 26 29 29 32 29 26 26 19 13 6 16 16 16
26 26 19 16 16 16 16 13 16 13 10 10 10 16 16 16 19 19 19 19 19 23 26 29 29 29 29 29 29 23 23 19 23 32 26 29 23 16 13 13 10 13 13
23 19 13 13 13 10 16 16 16 10 10 13 10 13 16 16 16 16 19 16 19 19 29 32 29 29 29 29 29 16 13 16 23 13 13 19 19 16 10 6 6 6 6
16 10 13 16 16 16 13 10 10 6 6 3 3 16 16 16 16 19 19 19 19 16 16 23 23 26 26 29 29 23 13 10 13 16 16 16 13 19 10 10 6 6 13
13 10 16 16 16 16 13 6 10 6 10 10 6 10 16 16 13 19 19 19 19 16 16 19 23 26 29 29 26 26 23 16 10 10 10 6 6 13 13 6 6 6 10
13 10 10 13 10 13 10 10 6 13 3 3 6 10 16 13 13 13 19 19 19 19 16 19 23 29 32 23 23 26 23 23 16 6 0 3 3 3 10 6 6 6 10
13 10 6 10 10 10 10 10 10 10 3 0 0 3 13 13 10 10 10 16 13 16 16 19 23 23 23 23 23 19 16 13 13 10 10 10 6 0 6 10 6 6 6

GEFSSE_con_cape1000_222.txt.gz
Probability
45 61 87 87 84 87 84 81 81 84 87 81 81 84 90 87 84 81 84 84 84 87 87 81 77 74 77 81 77 77 68 74 71 68 68 74 71 71 74 74 71 71 87
42 55 87 87 87 84 81 84 84 84 84 81 81 77 84 87 84 87 87 90 90 87 87 81 81 77 81 77 77 71 68 65 58 68 68 68 65 74 74 71 74 74 81
45 65 81 84 87 87 81 74 77 77 77 81 84 81 84 87 87 84 84 90 87 87 81 81 77 74 74 77 77 71 65 65 61 65 68 48 65 77 81 77 74 81 77
35 55 65 74 81 74 74 74 74 74 77 77 81 77 81 81 81 84 81 84 84 84 81 81 77 77 74 71 68 65 65 68 58 65 52 39 42 71 77 74 74 74 77
35 52 71 74 77 74 71 71 71 74 71 71 71 68 68 74 71 71 74 74 77 77 81 74 74 74 71 71 65 68 65 61 61 58 39 26 42 84 77 74 68 71 77
32 52 68 68 68 71 58 58 61 61 65 71 68 65 68 68 71 74 74 71 68 74 74 74 71 68 65 68 65 61 58 61 55 32 39 42 45 81 74 71 71 71 77
35 55 65 71 68 68 61 58 58 58 61 65 61 55 61 65 68 68 74 71 68 58 55 65 65 65 68 65 55 52 52 55 42 26 26 35 58 77 77 71 71 74 77
39 48 65 71 68 68 61 58 52 55 55 55 55 58 58 61 61 68 71 71 58 61 52 55 61 65 65 55 55 42 48 52 23 16 23 29 61 71 71 74 71 71 74
35 48 55 55 58 65 68 61 55 55 55 48 48 48 55 61 61 61 68 61 55 55 55 55 52 55 52 48 48 45 42 42 29 16 6 26 65 65 61 61 65 68 71
32 39 52 48 48 55 58 55 52 52 52 48 48 48 48 52 58 58 58 61 55 52 48 48 48 45 45 48 39 39 35 35 26 16 13 19 65 61 55 58 61 58 61
35 35 39 45 42 42 39 52 48 52 48 48 48 48 48 48 55 61 48 65 58 48 52 48 48 39 35 39 32 32 32 29 13 19 29 42 68 55 48 48 55 52 58
29 35 35 39 32 35 32 39 48 48 45 42 42 45 52 55 52 39 52 55 58 48 45 48 42 39 39 29 32 35 29 23 23 13 32 48 58 55 52 55 55 48 55
29 32 35 42 39 39 45 42 45 45 48 45 45 45 48 52 48 45 58 55 55 42 42 45 42 29 23 23 29 26 23 16 19 19 23 52 48 52 52 58 58 55 55
26 29 32 39 39 42 39 42 42 42 45 39 42 48 52 58 55 42 42 48 45 39 52 42 42 32 26 29 23 23 19 19 19 16 26 42 42 42 35 45 45 48 48
32 32 35 45 48 48 55 55 42 45 45 45 55 55 52 55 52 48 48 45 39 39 35 32 35 32 26 23 19 23 19 19 19 19 19 29 32 35 35 29 39 42 45
39 39 35 42 45 48 48 48 52 45 48 42 48 48 52 52 48 48 42 42 45 42 39 39 26 23 29 32 26 23 26 16 19 23 19 19 26 26 29 29 29 32 35
45 42 42 35 39 48 45 42 39 42 48 42 45 52 52 48 48 39 45 39 39 35 32 32 23 16 16 19 23 23 19 19 16 19 19 16 19 26 29 26 26 26 32
39 45 35 26 39 39 42 39 32 35 32 42 39 39 42 42 48 45 39 35 39 32 39 35 23 19 16 19 19 19 16 19 16 13 23 16 16 16 19 23 26 26 32
42 42 39 35 35 35 35 39 29 35 29 39 42 39 35 39 32 39 35 35 32 32 32 19 23 19 23 23 19 23 19 16 23 16 23 16 16 19 23 19 23 26 29
35 39 39 39 39 35 35 32 26 29 26 35 35 32 32 32 26 32 32 23 26 23 26 29 29 32 23 19 13 10 19 19 23 23 19 19 19 19 16 16 16 16 19
35 39 42 42 45 39 35 29 23 19 23 23 29 32 32 29 26 26 19 23 26 23 23 23 19 16 23 23 19 19 23 19 16 19 19 19 16 13 19 19 16 13 13
35 39 42 42 45 39 39 32 32 19 23 23 19 26 29 23 23 16 29 19 23 19 19 19 19 10 16 16 19 10 10 13 13 6 13 16 10 16 16 13 13 16 16
32 26 13 35 35 32 32 26 19 19 16 16 26 23 23 19 19 26 23 19 23 23 23 19 19 13 13 19 23 19 10 10 10 10 10 10 10 13 13 13 13 13 19
23 23 23 32 32 32 26 23 19 16 10 13 13 19 23 23 23 23 26 19 26 23 26 19 19 19 16 10 10 19 16 13 6 10 10 10 10 10 10 6 6 13 16
19 16 23 29 29 23 26 23 16 16 13 10 6 13 16 19 19 19 19 23 19 26 23 16 16 16 13 13 10 13 6 13 6 10 3 6 6 6 13 10 10 13 13
16 16 16 32 35 32 23 16 23 16 10 3 6 6 6 13 19 19 16 19 26 19 19 16 16 16 13 16 16 19 16 13 10 3 0 3 3 3 13 10 10 13 10

GEFSSE_con_cape1000_228.txt.gz
Probability
48 65 87 87 90 94 90 87 87 87 90 81 84 87 87 87 87 87 87 87 87 90 84 77 81 74 74 68 71 71 65 65 65 65 65 65 71 65 65 74 71 74 87
45 61 87 90 94 87 90 87 84 81 81 87 87 87 87 87 87 87 87 87 90 90 84 77 74 71 71 74 74 74 71 68 68 71 68 61 61 61 68 71 71 71 90
55 61 81 84 87 87 87 84 81 81 81 81 87 84 87 87 87 87 87 87 87 87 90 87 84 74 71 77 77 68 65 65 65 65 61 35 45 65 71 74 74 77 81
55 58 68 77 87 84 77 77 81 81 81 81 77 77 81 84 84 84 87 87 87 84 81 81 84 77 77 74 71 71 65 65 65 52 35 26 26 68 74 74 71 77 81
42 52 68 71 71 77 71 71 68 74 71 71 74 77 77 81 81 84 84 77 81 77 77 77 81 77 77 74 71 68 68 65 55 42 32 23 13 71 77 74 68 71 68
42 48 65 68 71 71 65 61 61 65 71 71 71 71 71 81 84 77 71 77 71 71 71 71 71 74 74 74 65 68 68 45 39 26 23 29 19 61 74 65 68 68 71
48 48 61 71 71 68 65 58 58 55 58 65 65 65 71 65 65 68 68 71 71 71 71 71 71 68 74 65 58 55 52 39 23 23 26 16 23 61 74 71 71 71 71
48 45 52 71 71 71 68 65 58 61 61 65 61 61 61 61 58 65 61 68 68 68 68 61 55 58 65 61 58 55 52 35 26 23 23 10 39 65 71 71 71 71 71
42 45 45 52 55 61 61 61 61 61 58 55 52 55 58 52 58 61 61 61 58 55 58 55 58 58 55 65 61 58 55 42 26 23 19 13 35 58 71 68 68 68 68
45 42 42 45 42 39 45 58 61 58 52 48 48 52 55 48 48 52 61 61 58 55 55 55 52 58 58 55 61 61 55 35 29 13 10 16 52 55 65 65 71 68 61
29 29 35 35 32 39 35 45 45 45 45 48 45 48 48 42 42 45 48 61 58 58 58 55 58 55 58 52 52 55 32 23 13 10 10 26 52 52 52 61 65 68 68
26 23 26 29 32 29 29 35 35 35 32 32 32 39 32 26 26 35 42 52 61 61 58 55 45 48 39 19 26 39 19 19 16 13 10 39 52 45 48 55 52 55 52
23 23 26 26 23 29 26 19 29 26 29 29 26 26 19 23 23 26 35 39 39 39 35 35 32 16 19 16 16 19 19 16 10 13 6 48 52 42 42 48 45 48 48
19 19 16 19 19 16 16 19 16 23 26 29 26 26 16 16 16 19 23 19 16 16 13 19 16 16 16 13 16 16 19 16 10 6 13 39 45 42 39 39 42 35 45
19 16 16 13 13 13 13 16 16 23 23 19 23 23 16 13 10 16 13 13 13 16 13 13 13 13 10 10 10 6 3 6 6 6 10 32 42 48 45 39 39 35 45
13 10 16 13 13 16 13 19 16 19 23 23 23 26 16 10 6 6 10 10 10 10 13 13 10 10 10 10 10 6 3 3 3 3 3 10 35 48 45 39 35 39 32
13 16 23 16 10 16 16 13 10 6 6 13 19 16 13 10 6 10 6 6 10 10 10 10 13 6 6 10 6 3 3 3 3 3 3 6 13 29 42 39 39 32 32
19 23 23 16 16 13 13 3 3 6 0 0 6 6 19 10 10 6 6 6 6 6 6 6 6 6 6 3 0 0 0 0 3 0 0 3 10 13 16 35 39 32 26
16 16 19 16 13 13 6 3 3 0 3 3 3 3 3 6 3 3 3 3 6 3 3 3 3 3 3 3 3 0 0 0 0 0 0 0 6 6 6 10 19 26 19
16 13 16 10 10 3 3 3 3 3 3 3 0 0 0 0 3 0 0 3 3 6 3 3 0 0 3 0 3 3 0 0 0 0 0 0 0 3 3 3 10 13 19
16 13 19 10 6 6 6 6 3 0 0 0 0 0 0 0 3 0 3 3 3 0 3 0 0 3 3 0 3 0 0 0 0 0 0 0 0 0 0 0 0 3 10
13 6 13 10 6 6 6 6 0 0 0 0 0 0 0 0 3 3 3 3 3 0 0 0 0 0 3 3 0 0 0 0 0 0 0 0 0 0 0 0 0 0 0
13 16 10 6 6 6 3 3 0 0 0 0 0 0 0 0 0 3 0 0 0 0 0 0 0 0 3 3 0 0 0 0 0 0 0 0 0 0 0 0 0 0 0
13 13 13 3 3 3 3 3 0 0 0 0 0 0 0 0 0 0 3 3 3 3 0 0 0 0 0 0 0 0 0 0 0 0 0 0 0 0 0 0 0 0 0
6 10 6 3 3 3 3 3 0 0 0 0 0 0 0 0 0 0 3 3 3 3 0 0 0 0 0 0 0 0 0 0 0 0 0 0 0 0 0 0 0 0 0
3 3 3 3 3 3 3 3 0 0 0 0 0 0 0 0 0 0 0 0 3 3 0 0 0 0 0 0 0 0 0 0 0 0 0 0 0 0 0 0 0 0 0

GEFSSE_con_cape1000_234.txt.gz
Probability
32 52 74 77 77 77 84 81 81 81 81 87 90 90 90 90 90 90 90 90 84 84 84 84 84 74 74 68 65 71 71 68 71 58 61 61 55 61 71 68 61 65 87
35 52 77 77 77 74 84 77 77 77 77 87 87 90 90 90 87 87 90 90 90 84 84 84 81 74 77 74 68 71 74 65 68 61 52 52 58 68 71 68 61 65 77
45 58 71 77 77 77 77 77 77 77 81 84 87 87 87 87 84 87 84 84 87 90 87 81 77 74 71 71 71 68 68 68 65 65 65 48 55 61 68 65 68 74 77
48 58 71 77 74 71 71 74 74 74 74 77 74 77 81 81 81 81 84 84 84 81 81 77 74 74 71 65 65 65 68 65 65 58 42 29 42 55 58 58 65 74 74
39 48 58 74 74 68 68 65 65 68 68 71 71 71 74 74 71 74 84 81 77 77 74 77 81 77 77 71 68 65 65 65 61 45 35 29 32 45 58 68 65 74 74
35 48 61 71 65 65 58 61 58 58 61 68 68 71 71 74 74 74 71 68 74 71 71 65 68 68 74 74 68 65 68 65 45 32 32 26 26 48 58 55 65 68 74
32 52 58 65 68 61 61 55 55 58 65 65 65 68 68 71 71 71 68 65 61 65 65 65 65 61 65 65 61 58 58 48 26 26 29 29 32 48 48 45 58 65 74
39 42 48 58 61 55 58 58 61 65 65 65 65 65 65 65 68 65 58 58 58 61 61 65 61 61 61 65 61 58 55 42 26 23 23 23 42 61 52 58 61 65 65
35 39 42 45 55 58 58 58 58 58 61 61 65 61 58 58 58 58 52 52 52 55 55 55 55 58 58 68 65 68 55 48 26 23 26 26 35 58 55 65 65 68 61
29 35 35 32 35 42 42 48 52 52 55 58 55 52 48 45 42 42 55 52 52 48 52 58 65 65 61 65 68 58 52 42 23 26 29 26 42 55 55 55 55 58 65
26 29 32 29 32 32 35 42 42 45 45 39 39 39 39 32 32 35 35 42 45 48 52 52 61 61 58 55 52 52 42 26 16 19 19 26 45 52 58 55 55 55 61
19 29 29 29 26 23 23 19 26 29 26 29 26 32 29 29 26 29 32 35 35 32 42 39 48 48 32 26 29 32 23 19 19 19 23 35 42 42 48 45 48 45 48
23 26 26 23 26 19 16 19 16 16 19 23 26 23 23 26 23 19 19 26 29 32 32 29 26 23 23 16 13 16 16 13 16 23 19 39 48 35 39 42 42 42 42
19 23 26 19 23 16 13 16 16 16 16 16 13 19 16 16 16 16 19 23 23 19 16 16 13 10 10 10 16 16 10 10 10 10 16 23 39 32 39 35 39 39 39
16 19 19 19 19 19 13 13 16 16 13 13 10 10 13 13 13 13 13 13 13 13 10 10 10 10 10 10 10 13 13 10 10 10 6 13 29 39 35 35 39 42 42
16 19 19 16 16 16 16 13 16 16 10 10 10 10 6 6 10 10 10 10 13 10 10 10 10 10 10 10 6 3 6 10 13 10 13 10 26 32 32 39 39 35 35
3 10 19 16 6 10 16 13 13 13 10 10 10 6 6 6 6 10 10 6 10 10 10 10 10 10 10 10 6 3 3 3 6 10 13 6 10 26 35 42 42 39 42
3 3 6 16 10 6 6 10 10 10 6 6 6 6 6 6 6 3 6 3 3 6 6 6 6 6 3 3 3 3 3 3 3 6 6 10 6 6 10 32 35 35 39
6 6 6 3 10 6 6 6 6 6 6 6 6 6 6 6 3 0 0 0 0 0 3 3 3 3 3 3 0 0 0 3 3 3 6 6 6 6 10 16 19 23 19
6 6 6 3 10 3 0 0 0 3 3 0 6 6 6 6 0 0 0 0 0 0 3 3 3 3 3 3 0 0 0 0 0 0 0 6 6 6 6 10 16 13 16
10 6 3 3 3 0 3 3 0 0 0 0 0 0 0 3 3 0 0 0 0 0 0 3 3 3 3 0 0 0 0 0 0 0 0 0 0 0 3 6 6 10 10
10 6 6 0 0 0 0 0 0 0 0 0 0 0 0 0 3 0 0 0 0 0 0 3 3 3 3 0 0 0 0 0 0 0 0 0 0 0 0 0 3 6 6
6 6 6 3 0 0 0 0 0 0 0 0 0 0 0 0 0 0 0 0 0 0 0 0 0 0 0 0 0 0 0 0 0 0 0 0 0 0 0 0 0 0 0
3 0 3 6 3 0 0 0 0 0 0 0 0 0 0 0 0 0 0 0 0 0 0 0 0 0 0 3 0 0 0 0 0 0 0 0 0 0 0 0 0 0 0
0 0 3 3 3 0 0 0 0 0 0 0 0 0 0 0 0 0 0 0 0 0 0 0 0 0 0 0 0 0 0 0 0 0 0 0 0 0 0 0 0 0 0
0 0 0 3 3 3 0 0 0 0 0 0 0 0 0 0 0 0 0 0 0 0 0 0 0 0 0 0 0 0 0 0 0 0 0 0 0 0 0 0 0 0 0

GEFSSE_con_cape1000_240.txt.gz
Probability
16 35 68 71 74 77 71 74 74 77 81 87 90 90 90 90 90 90 90 87 81 77 74 71 68 65 71 68 65 68 65 61 61 52 52 61 58 68 65 71 68 68 81
26 35 68 81 77 68 68 71 68 71 74 81 84 87 87 90 90 84 84 90 84 81 74 77 65 65 71 65 65 65 58 65 58 48 48 55 55 65 65 61 68 71 81
29 42 55 74 74 68 68 71 71 74 74 74 81 81 81 87 87 84 87 84 84 84 77 71 68 71 71 74 71 68 68 61 58 55 55 48 48 58 65 58 71 74 81
29 32 39 71 71 74 65 68 68 71 71 71 71 71 74 81 81 84 77 84 84 81 77 68 65 65 65 68 65 58 65 65 55 55 42 32 39 55 68 65 65 61 68
26 32 58 61 71 68 61 58 58 65 68 68 68 71 68 71 77 71 71 71 68 71 71 74 65 61 61 61 61 65 61 55 48 35 32 39 39 58 52 55 61 58 58
23 32 52 61 58 61 58 58 58 58 58 61 65 68 68 68 65 65 65 65 61 65 68 65 65 65 61 61 61 68 58 55 39 26 29 32 39 55 52 52 48 68 71
29 39 45 61 55 55 55 55 55 55 58 58 55 52 55 61 58 58 61 55 58 61 61 61 61 61 65 65 58 61 55 48 26 19 26 32 39 48 48 45 58 61 71
32 32 42 52 48 55 52 48 55 55 55 52 52 58 55 58 58 52 55 52 55 55 58 58 58 61 61 61 61 61 52 39 23 10 26 26 39 45 45 48 58 61 65
42 42 45 32 45 58 52 52 52 55 55 55 52 52 55 58 52 48 48 48 52 55 55 55 61 61 65 58 58 52 48 48 42 23 16 26 39 39 45 55 55 58 58
39 35 39 29 42 39 48 45 45 45 45 42 42 42 42 48 42 45 48 42 45 48 52 55 65 61 61 61 55 48 45 42 26 23 29 23 35 32 45 55 55 55 58
35 32 35 26 29 26 26 26 39 42 42 35 42 42 32 29 23 35 26 39 35 39 39 45 52 55 48 45 45 48 45 23 23 29 35 45 39 32 39 45 52 48 45
32 32 32 29 29 26 26 26 35 29 32 32 32 29 26 32 35 26 29 35 32 32 32 29 32 26 29 29 32 32 32 29 29 29 39 42 35 35 39 42 45 42 39
26 35 32 26 29 29 29 29 26 26 26 26 29 32 32 32 29 29 32 29 32 26 23 26 19 13 10 16 16 19 19 23 29 23 29 45 35 35 32 35 39 39 35
29 29 29 23 32 26 26 23 23 23 23 23 26 29 29 29 32 35 42 35 29 23 26 16 16 13 10 13 16 16 19 13 19 19 23 35 39 35 42 35 32 35 39
32 32 29 32 32 32 32 32 19 19 16 19 26 26 29 26 32 26 42 35 32 32 29 23 19 13 16 13 10 10 13 16 16 19 19 26 32 29 29 29 32 32 35
29 32 29 29 29 32 32 32 23 16 23 13 13 23 29 29 32 32 29 32 32 32 29 26 19 13 13 13 13 16 16 16 13 16 16 16 29 29 26 29 26 35 39
32 32 29 29 26 26 26 26 23 19 16 16 13 23 29 32 29 26 23 32 29 29 29 23 19 19 16 13 10 13 13 6 13 10 13 19 19 16 23 26 26 29 32
23 32 26 29 23 26 26 26 19 19 16 19 19 23 23 26 26 29 26 23 23 23 26 23 19 16 10 10 13 16 10 19 10 13 13 13 16 13 10 13 19 29 32
29 29 26 26 23 23 26 26 23 23 26 13 23 23 23 23 23 26 26 26 23 23 23 23 16 16 13 16 10 19 16 16 13 6 10 10 13 13 16 13 16 19 23
29 29 19 19 23 19 19 26 26 23 19 23 19 23 26 26 13 26 26 26 23 23 26 23 23 19 19 19 3 6 10 10 6 10 3 6 10 13 16 10 13 10 16
32 26 19 19 19 23 19 23 23 19 19 19 19 19 19 16 16 16 10 19 19 23 23 23 23 19 13 16 6 6 3 6 6 6 6 0 3 10 10 6 10 13 16
26 23 19 19 19 16 23 26 29 29 23 23 19 19 13 13 13 10 13 16 16 19 23 19 19 16 10 13 10 10 6 6 6 0 3 6 6 3 6 3 10 16 13
23 23 19 19 19 16 19 26 23 19 19 10 13 13 10 10 10 6 10 6 16 13 19 19 23 16 13 10 13 10 6 3 3 3 3 3 6 10 10 10 6 6 6
26 19 23 26 26 23 26 23 16 16 16 16 19 13 13 13 13 6 6 3 3 3 16 13 10 13 16 13 13 6 6 3 0 3 3 3 6 6 3 0 3 13 13
26 19 16 23 23 26 26 26 26 16 16 16 13 6 16 16 10 3 3 3 3 3 10 10 13 13 13 16 16 10 6 6 0 0 3 6 3 3 3 6 10 10 13
23 19 16 19 19 26 26 32 29 23 23 16 19 10 10 10 10 0 0 3 3 3 6 10 13 13 13 10 10 10 10 6 3 0 0 3 3 0 6 10 10 13 10

GEFSSE_con_cape1000_246.txt.gz
Probability
48 58 81 74 71 68 65 65 71 71 71 74 77 84 84 87 84 84 84 84 77 74 74 68 65 65 68 68 65 68 61 58 58 61 61 58 58 61 55 52 61 65 74
48 65 81 77 68 71 68 65 68 68 68 71 74 77 77 77 81 77 77 77 84 77 74 71 65 61 65 61 65 61 52 52 48 55 52 55 58 58 58 58 74 61 81
52 61 68 74 71 71 74 71 65 68 68 68 68 68 74 74 77 81 81 81 81 77 74 71 68 68 61 68 61 61 61 52 48 48 58 42 52 58 65 68 71 81 74
42 48 58 74 74 71 68 65 61 58 61 65 61 65 68 68 74 74 77 77 77 81 71 71 68 61 71 68 58 55 52 45 58 61 39 39 35 55 55 65 74 71 74
39 52 71 74 68 68 61 58 61 61 61 58 58 61 65 61 68 65 65 61 61 61 61 61 58 65 65 71 58 55 52 55 58 55 29 26 32 48 52 52 61 58 58
39 55 61 68 65 58 58 61 61 65 58 58 58 61 65 61 61 61 61 58 58 55 55 55 52 58 52 55 58 55 52 55 42 26 29 32 32 55 58 45 45 52 58
42 39 52 65 61 58 58 58 55 52 55 52 55 52 52 48 45 58 55 55 55 52 48 45 48 48 48 52 52 48 42 42 42 23 32 39 42 55 55 48 52 55 61
39 39 55 65 58 58 55 55 52 48 48 48 45 45 45 52 48 48 55 48 52 48 52 45 45 45 48 52 48 42 39 39 19 16 26 29 52 58 48 45 52 48 48
35 45 42 48 55 58 58 58 52 45 48 48 48 45 45 45 48 48 52 52 52 48 48 45 45 45 45 45 39 45 42 42 29 13 19 26 52 55 55 55 55 52 45
26 39 48 39 48 45 52 48 45 42 42 42 42 42 39 42 42 52 55 58 42 45 42 45 45 45 48 42 42 39 45 39 19 13 13 29 52 52 52 48 45 45 45
23 39 39 35 39 26 32 42 42 45 45 42 42 42 42 29 32 35 35 45 35 35 39 42 39 45 42 45 39 42 32 26 13 19 16 39 45 45 45 42 42 32 42
29 32 29 26 29 26 26 32 35 32 35 39 32 32 35 35 39 29 39 39 29 32 32 35 42 35 32 26 29 45 23 19 13 19 26 48 45 42 39 39 35 35 29
39 35 26 23 26 26 32 29 29 29 32 26 29 35 45 42 39 32 35 32 39 29 29 32 26 26 13 16 16 19 13 10 16 13 26 42 42 39 39 35 39 35 39
35 29 26 35 35 32 26 23 32 23 29 26 35 29 39 48 45 45 39 32 26 29 35 35 29 23 16 19 13 16 16 19 16 13 29 45 42 35 42 42 45 42 39
35 26 35 35 42 45 42 39 26 32 29 35 45 39 42 42 45 35 39 48 29 32 32 42 23 23 19 13 16 13 10 6 10 16 23 48 42 35 32 32 39 45 42
39 39 39 45 42 45 42 42 39 35 48 35 42 42 39 42 42 35 32 39 42 42 45 39 19 23 23 16 16 19 10 10 6 13 19 32 52 42 39 35 35 39 42
45 39 39 35 39 48 35 39 35 32 32 35 32 35 39 42 39 29 42 42 42 35 42 39 29 23 23 10 19 26 19 19 16 16 13 19 16 26 29 35 32 32 32
39 48 42 32 32 48 45 39 35 32 39 35 35 39 35 32 32 32 39 42 39 39 42 35 35 23 16 13 16 16 19 19 16 13 16 10 10 10 16 26 32 35 35
45 45 45 42 32 39 42 42 39 42 45 35 39 35 32 32 29 32 35 42 39 35 39 19 23 19 16 13 10 16 19 23 13 6 13 10 10 16 10 10 23 32 26
45 45 45 52 42 42 39 45 42 35 39 45 42 39 39 35 32 32 29 39 35 32 26 23 13 26 19 19 6 10 19 13 13 10 10 6 13 10 6 6 6 10 26
45 45 48 48 55 52 45 39 35 29 42 39 39 45 35 32 35 35 19 32 32 29 26 19 16 19 16 10 13 3 6 6 10 19 13 6 6 13 13 13 3 3 3
45 45 48 52 52 52 55 45 45 32 39 35 32 42 35 29 29 13 26 26 29 29 26 19 19 23 13 10 10 0 0 3 3 0 6 19 6 10 6 6 3 6 3
42 39 35 52 55 48 48 42 42 45 45 39 42 42 39 32 29 23 23 29 29 23 19 19 23 26 13 6 10 3 3 0 0 0 0 0 13 13 10 3 0 10 10
35 39 42 55 55 48 55 42 42 39 32 39 35 39 39 32 19 23 23 16 23 23 23 13 16 23 16 16 10 10 3 3 0 3 0 6 6 13 13 0 0 3 3
29 35 39 55 58 55 52 52 45 39 42 39 39 39 39 35 23 13 19 23 23 29 16 13 10 10 16 16 10 6 3 0 3 3 0 3 3 10 10 10 10 16 16
29 39 42 48 48 48 48 45 45 39 35 39 35 32 32 29 26 19 13 19 23 23 16 10 10 10 10 10 16 10 10 10 3 0 0 0 0 3 13 13 13 19 16

GEFSSE_con_cape1000_252.txt.gz
Probability
39 65 87 84 84 81 74 77 81 77 81 87 87 87 87 84 77 81 81 77 81 71 68 74 84 65 71 74 77 71 68 61 61 58 58 55 61 61 68 71 65 58 77
42 61 84 81 84 81 81 74 77 77 77 81 84 84 84 77 77 77 74 77 77 74 71 77 74 74 71 68 68 68 68 61 61 55 58 58 58 65 61 71 61 55 74
48 58 74 84 81 77 77 71 68 68 71 74 71 77 77 77 77 77 81 81 77 74 68 77 74 68 71 61 58 55 55 61 61 45 45 32 48 58 58 61 61 65 68
48 48 52 84 84 77 71 68 61 65 65 71 74 77 81 71 74 71 71 71 71 74 65 68 74 68 71 65 55 55 48 55 65 45 23 16 23 55 58 58 58 58 65
45 48 61 81 77 71 71 71 65 61 61 65 68 65 65 65 68 74 71 65 68 68 68 65 61 68 68 68 68 58 52 55 52 32 16 16 16 48 58 55 55 55 58
42 48 68 74 74 68 68 68 61 61 65 65 58 55 58 61 65 71 65 61 65 58 61 52 55 58 52 58 61 61 61 52 32 23 16 16 16 42 48 52 52 55 65
42 48 61 68 65 61 61 61 61 61 65 61 58 61 52 58 65 65 65 58 52 48 52 55 48 52 55 48 52 58 61 48 23 13 19 16 19 45 42 61 68 68 61
42 45 55 65 65 58 55 55 58 58 61 55 52 55 55 52 52 58 58 55 52 48 42 45 45 48 58 55 45 45 45 29 19 16 16 16 29 32 39 45 61 48 55
35 42 42 45 55 55 55 55 55 55 52 45 45 42 48 48 58 55 58 61 58 48 42 42 48 48 52 52 45 39 42 39 16 13 13 13 23 32 45 42 55 48 45
29 35 39 42 45 52 52 52 52 52 45 39 42 42 45 42 55 55 58 58 58 48 39 39 39 42 42 42 45 39 39 35 10 16 13 13 39 39 39 42 45 42 39
32 35 39 39 35 32 32 42 39 39 42 35 35 39 39 35 35 39 45 55 52 48 52 45 48 45 39 42 39 39 29 6 3 10 13 23 42 42 42 48 42 42 39
23 29 29 26 29 26 32 35 35 32 32 29 29 29 23 23 19 23 42 55 52 52 45 45 45 39 29 16 19 19 3 0 0 6 10 32 42 42 45 52 45 39 39
16 19 19 19 19 23 23 26 26 23 23 23 23 16 16 13 13 19 16 29 26 23 23 26 19 16 13 10 10 3 3 0 0 6 10 39 45 45 48 39 42 35 42
19 19 19 13 16 16 16 19 16 19 16 13 16 13 10 10 6 10 10 10 10 10 13 13 10 10 6 6 3 3 3 0 0 3 6 29 45 45 45 39 32 35 39
23 23 19 13 13 10 16 16 13 13 13 13 16 16 6 6 6 10 10 10 10 6 6 6 6 6 6 3 0 0 0 0 0 3 6 23 42 42 39 32 32 32 35
23 19 13 13 13 10 10 10 10 10 10 10 13 13 6 6 6 10 10 10 6 6 6 6 6 3 3 3 0 0 0 0 0 3 3 10 35 35 39 29 26 29 29
19 16 16 13 10 6 10 10 10 10 10 6 13 10 10 6 10 6 10 6 3 3 0 0 3 3 3 3 3 0 0 0 0 0 0 0 10 35 39 32 29 29 29
19 19 19 13 6 6 6 6 6 10 10 6 13 10 10 10 6 6 3 3 0 0 0 0 3 3 3 3 3 0 0 0 3 3 3 0 3 6 16 29 29 29 29
19 16 13 19 13 10 10 6 10 10 10 10 10 10 6 6 6 6 0 0 0 0 0 0 0 0 0 0 0 3 3 3 3 3 3 0 0 0 0 3 26 29 29
16 16 16 16 16 13 10 10 10 6 6 10 10 10 6 6 6 6 0 3 0 0 0 0 0 0 0 0 3 3 0 0 0 0 0 0 0 0 0 0 3 10 26
13 16 16 16 16 13 6 6 6 6 3 3 6 10 10 6 3 3 3 3 0 0 0 0 0 0 3 3 3 0 0 0 0 0 0 0 0 0 0 0 0 0 3
10 13 16 16 16 13 10 6 6 6 6 3 6 6 6 3 3 3 3 0 0 0 0 0 0 0 3 3 0 0 0 0 0 0 0 0 0 0 0 0 0 0 0
13 19 19 13 13 13 10 6 6 6 6 3 6 10 3 6 6 3 3 3 0 0 0 0 0 0 3 0 0 0 0 0 0 0 0 0 0 0 0 0 0 0 0
13 10 13 10 10 13 13 6 6 6 6 6 6 10 3 6 6 3 3 3 0 0 0 0 0 0 0 0 0 0 0 0 0 0 0 0 0 0 0 0 0 0 0
13 13 10 6 10 13 10 6 6 6 6 6 6 10 10 6 6 3 3 3 3 0 0 0 0 0 0 0 0 0 0 0 0 0 0 0 0 0 0 0 0 0 0
13 13 6 10 10 13 10 10 3 3 3 3 3 6 6 6 6 6 3 3 3 3 0 0 0 0 0 0 0 0 0 0 0 0 0 0 0 0 0 0 0 0 0